Flag for Cyprus Weather past 2 weeks in Nicosia, Cyprus

Now
77 °F

Passing clouds.


Feels Like: 78 °F
Forecast: 68 / 88 °F
Wind: 15 mph from Northwest

Location: Ercan

Current Time: Sep 21, 2014 at 8:18:52 PM

Latest Report: Sep 21, 2014 at 7:50 PM


Visibility: N/A

Pressure: 29.83 "Hg

Humidity: 42%

Dew point: 52 °F

Location of NicosiaLocation

Historic Weather in Nicosia — Graph

°F

Nicosia temperature yesterday

Maximum temperature yesterday: 88 °F (at 2:50 PM)
Minimum temperature yesterday: 66 °F (at 5:20 AM)
Average temperature yesterday: 76 °F

Past Weeks' High & Low Weather Summary

 TemperatureHumidityPressure
High93 °F (Sep 15, 1:20 PM)94% (Sep 9, 4:50 PM)29.95 "Hg (Sep 9, 4:50 PM)
Low64 °F (Sep 21, 5:50 AM)22% (Sep 17, 12:50 PM)29.68 "Hg (Sep 6, 6:20 PM)
Average78 °F61%29.84 "Hg
* Reported Sep 6 6:20 PM — Sep 21 6:50 PM, Nicosia, Weather by CustomWeather, © 2014

Note: Actual official high and low records may vary slightly from our data, if they occured in-between our weather recording intervals... More about our weather records

Advertising

Nicosia weather history for previous 24 hours

 ConditionsComfort  
Time TempWeatherWind HumidityBarometerVisibility
6:50 PM
Sep 21
79 °FPassing clouds.17 mph34%29.80 "HgN/A
6:20 PM81 °FPassing clouds.18 mph28%29.80 "HgN/A
5:50 PM82 °FPassing clouds.18 mph26%29.80 "HgN/A
5:20 PM82 °FPassing clouds.18 mph26%29.80 "HgN/A
4:50 PM84 °FPassing clouds.17 mph25%29.80 "HgN/A
4:20 PM86 °FPassing clouds.20 mph24%29.80 "HgN/A
3:50 PM86 °FPassing clouds.16 mph25%29.80 "HgN/A
3:20 PM88 °FPassing clouds.15 mph22%29.80 "HgN/A
2:50 PM88 °FPassing clouds.13 mph22%29.80 "HgN/A
2:20 PM88 °FPassing clouds.14 mph24%29.83 "HgN/A
1:50 PM88 °FScattered clouds.14 mph24%29.83 "HgN/A
1:20 PM88 °FScattered clouds.5 mph27%29.83 "HgN/A
12:50 PM86 °FScattered clouds.7 mph29%29.86 "HgN/A
12:20 PM86 °FScattered clouds.8 mph31%29.86 "HgN/A
11:50 AM86 °FScattered clouds.6 mph29%29.86 "HgN/A
11:20 AM82 °FScattered clouds.9 mph32%29.86 "HgN/A
10:50 AM84 °FScattered clouds.6 mph33%29.89 "HgN/A
10:20 AM82 °FPassing clouds.6 mph35%29.89 "HgN/A
9:50 AM81 °FPassing clouds.7 mph37%29.86 "HgN/A
9:20 AM79 °FPassing clouds.7 mph45%29.86 "HgN/A
8:50 AM77 °FPassing clouds.7 mph51%29.86 "HgN/A
8:20 AM75 °FScattered clouds.8 mph50%29.86 "HgN/A
7:50 AM72 °FScattered clouds.7 mph61%29.86 "HgN/A
7:20 AM68 °FPassing clouds.8 mph69%29.86 "HgN/A
6:50 AM66 °FPassing clouds.8 mph68%29.86 "HgN/A
6:20 AM68 °FClear.9 mph69%29.86 "Hg10 mi
5:50 AM64 °FClear.8 mph78%29.86 "Hg10 mi
5:20 AM66 °FClear.9 mph73%29.86 "Hg10 mi
4:50 AM68 °FClear.9 mph73%29.86 "Hg10 mi
4:20 AM66 °FClear.8 mph78%29.86 "Hg10 mi
3:50 AM68 °FClear.9 mph73%29.86 "Hg10 mi
3:20 AM68 °FClear.10 mph73%29.86 "Hg10 mi
2:50 AM68 °FClear.10 mph73%29.86 "Hg10 mi
2:20 AM68 °FClear.9 mph73%29.86 "Hg10 mi
1:50 AM70 °FClear.10 mph69%29.89 "Hg10 mi
1:20 AM70 °FClear.9 mph73%29.89 "Hg10 mi
12:50 AM72 °FClear.9 mph69%29.89 "Hg10 mi
12:20 AM73 °FClear.13 mph65%29.89 "Hg10 mi
11:20 PM
Sep 20
73 °FClear.12 mph65%29.89 "Hg10 mi
10:50 PM73 °FClear.12 mph69%29.89 "Hg10 mi
10:20 PM73 °FClear.9 mph65%29.89 "Hg10 mi
9:50 PM75 °FClear.9 mph61%29.89 "Hg10 mi
9:20 PM75 °FClear.8 mph50%29.92 "Hg10 mi
8:50 PM75 °FClear.9 mph41%29.89 "Hg10 mi
Weather by CustomWeather, © 2014

See weather overviewHow to use our weather pages